RYR714 EGAA-EGJJ

Flight info

Callsign RYR714
Flight time 1h 8m
Altitude 37000
Route LISBO DCT RINGA Q39 ETIGA DCT INKOB Q39 NOMSU UQ4 WAL N862 KARNO DCT ALHUP DCT ABWIV DCT PACSE DCT DAWLY N864 ABBEW N90 ENHEL N862 SKERY
Aircraft B738/M-SDE2E3FGHIRWXY/LB1

Departure

Time 2026-01-18 04:18
Airport Belfast International Airport (EGAA)

Arrival

Time 2026-01-18 05:27
Airport Jersey Airport (EGJJ)
Time Latitude Longitude Altitude Speed Heading
2026-01-18 03:46 54.66078 -6.21646 271 ft 0 kts 335°
2026-01-18 04:06 54.66076 -6.21644 271 ft 2 kts 335°
2026-01-18 04:07 54.66035 -6.21612 271 ft 3 kts 335°
2026-01-18 04:07 54.66005 -6.21587 271 ft 3 kts 335°
2026-01-18 04:08 54.65956 -6.21537 279 ft 3 kts 290°
2026-01-18 04:09 54.65961 -6.21475 271 ft 2 kts 245°
2026-01-18 04:09 54.65963 -6.21467 271 ft 0 kts 245°
2026-01-18 04:11 54.65962 -6.21468 271 ft 1 kts 245°
2026-01-18 04:11 54.65914 -6.21648 271 ft 13 kts 245°
2026-01-18 04:12 54.65792 -6.22104 273 ft 16 kts 247°
2026-01-18 04:13 54.65755 -6.22470 271 ft 15 kts 263°
2026-01-18 04:13 54.65732 -6.22807 271 ft 14 kts 253°
2026-01-18 04:14 54.65621 -6.23109 275 ft 18 kts 233°
2026-01-18 04:14 54.65493 -6.23346 272 ft 8 kts 205°
2026-01-18 04:14 54.65438 -6.23387 271 ft 10 kts 203°
2026-01-18 04:15 54.65296 -6.23263 271 ft 1 kts 65°
2026-01-18 04:15 54.65297 -6.23262 271 ft 0 kts 65°
2026-01-18 04:17 54.65582 -6.22202 275 ft 116 kts 65°
2026-01-18 04:17 54.66473 -6.18829 1166 ft 159 kts 71°
2026-01-18 04:17 54.67007 -6.17056 1863 ft 172 kts 66°
2026-01-18 04:18 54.68437 -6.12980 2581 ft 223 kts 65°
2026-01-18 04:19 54.70186 -6.05311 4016 ft 243 kts 113°
2026-01-18 04:19 54.67686 -6.01950 5556 ft 240 kts 171°
2026-01-18 04:19 54.66037 -6.02033 6369 ft 244 kts 191°
2026-01-18 04:20 54.61043 -6.04631 8688 ft 256 kts 195°
2026-01-18 04:21 54.57593 -6.06411 10248 ft 262 kts 194°
2026-01-18 04:21 54.53807 -6.05460 10743 ft 307 kts 154°
2026-01-18 04:22 54.50435 -6.00346 11495 ft 343 kts 123°
2026-01-18 04:22 54.48479 -5.92781 12892 ft 352 kts 115°
2026-01-18 04:23 54.46602 -5.84874 14205 ft 360 kts 116°
2026-01-18 04:23 54.45639 -5.80875 14838 ft 363 kts 116°
2026-01-18 04:24 54.42673 -5.68740 16712 ft 372 kts 116°
2026-01-18 04:24 54.40638 -5.60497 17982 ft 377 kts 116°
2026-01-18 04:25 54.38126 -5.52635 19064 ft 378 kts 128°
2026-01-18 04:25 54.35047 -5.45211 20040 ft 385 kts 128°
2026-01-18 04:25 54.33492 -5.41431 20508 ft 389 kts 128°
2026-01-18 04:26 54.28821 -5.29918 22085 ft 394 kts 130°
2026-01-18 04:27 54.25518 -5.22417 22983 ft 398 kts 135°
2026-01-18 04:27 54.23737 -5.18761 23402 ft 401 kts 135°
2026-01-18 04:27 54.20126 -5.11419 24120 ft 408 kts 135°
2026-01-18 04:28 54.14600 -5.00063 24988 ft 420 kts 133°
2026-01-18 04:29 54.10927 -4.92491 25620 ft 425 kts 134°
2026-01-18 04:31 53.95821 -4.59872 28030 ft 449 kts 130°
2026-01-18 04:33 53.80758 -4.25014 30259 ft 465 kts 126°
2026-01-18 04:35 53.66131 -3.89444 32603 ft 461 kts 127°
2026-01-18 04:37 53.51293 -3.54031 34850 ft 455 kts 127°
2026-01-18 04:39 53.39399 -3.16068 36084 ft 463 kts 130°
2026-01-18 04:41 53.17269 -2.95896 37152 ft 459 kts 156°
2026-01-18 04:42 52.96059 -2.89242 37144 ft 448 kts 185°
2026-01-18 04:45 52.68317 -2.94538 37153 ft 447 kts 185°
2026-01-18 04:47 52.46556 -2.96134 37150 ft 449 kts 184°
2026-01-18 04:49 52.18464 -2.98439 37158 ft 453 kts 184°
2026-01-18 04:51 51.93106 -3.00490 37184 ft 458 kts 184°
2026-01-18 04:53 51.67924 -3.05093 37207 ft 453 kts 189°
2026-01-18 04:55 51.43058 -3.10237 37129 ft 448 kts 188°
2026-01-18 04:57 51.18940 -3.19573 37123 ft 449 kts 197°
2026-01-18 04:59 50.97626 -3.28953 35644 ft 456 kts 196°
2026-01-18 05:01 50.72612 -3.39836 30767 ft 407 kts 196°
2026-01-18 05:03 50.52563 -3.47038 27262 ft 346 kts 178°
2026-01-18 05:04 50.39104 -3.38467 24699 ft 359 kts 157°
2026-01-18 05:05 50.34736 -3.34939 23930 ft 349 kts 157°
2026-01-18 05:05 50.30452 -3.31507 23005 ft 343 kts 157°
2026-01-18 05:06 50.26256 -3.28145 22155 ft 335 kts 157°
2026-01-18 05:06 50.22063 -3.25239 21325 ft 324 kts 168°
2026-01-18 05:07 50.17722 -3.23663 20499 ft 318 kts 170°
2026-01-18 05:07 50.13449 -3.22149 19688 ft 317 kts 169°
2026-01-18 05:07 50.11302 -3.21380 19294 ft 317 kts 169°
2026-01-18 05:08 50.04629 -3.18972 17986 ft 333 kts 168°
2026-01-18 05:09 50.00192 -3.17100 17114 ft 328 kts 159°
2026-01-18 05:09 49.96265 -3.13575 16300 ft 324 kts 149°
2026-01-18 05:10 49.92534 -3.09719 15493 ft 320 kts 149°
2026-01-18 05:10 49.88852 -3.05929 14712 ft 315 kts 149°
2026-01-18 05:10 49.87050 -3.04085 14331 ft 314 kts 149°
2026-01-18 05:11 49.81623 -2.98553 13105 ft 308 kts 149°
2026-01-18 05:11 49.79835 -2.96736 12711 ft 306 kts 149°
2026-01-18 05:12 49.74544 -2.91371 11563 ft 300 kts 148°
2026-01-18 05:13 49.71071 -2.87858 10822 ft 297 kts 148°
2026-01-18 05:13 49.69367 -2.86136 10691 ft 288 kts 148°
2026-01-18 05:14 49.64435 -2.81161 10308 ft 278 kts 147°
2026-01-18 05:14 49.61309 -2.78014 10068 ft 263 kts 147°
2026-01-18 05:15 49.58260 -2.74948 9511 ft 259 kts 147°
2026-01-18 05:15 49.56772 -2.73455 9225 ft 251 kts 147°
2026-01-18 05:15 49.53927 -2.70600 8694 ft 237 kts 147°
2026-01-18 05:16 49.49951 -2.66617 7981 ft 219 kts 147°
2026-01-18 05:17 49.47415 -2.64082 7546 ft 217 kts 146°
2026-01-18 05:17 49.44884 -2.61557 7049 ft 216 kts 146°
2026-01-18 05:18 49.42296 -2.59224 6565 ft 216 kts 152°
2026-01-18 05:18 49.39597 -2.57180 6075 ft 216 kts 152°
2026-01-18 05:18 49.38248 -2.56158 5833 ft 216 kts 152°
2026-01-18 05:19 49.34219 -2.53085 5147 ft 215 kts 151°
2026-01-18 05:19 49.32916 -2.52088 5042 ft 210 kts 151°
2026-01-18 05:20 49.28962 -2.49060 4760 ft 216 kts 151°
2026-01-18 05:21 49.26205 -2.47191 4292 ft 224 kts 166°
2026-01-18 05:21 49.23060 -2.46634 3488 ft 216 kts 170°
2026-01-18 05:22 49.20194 -2.45998 3365 ft 198 kts 155°
2026-01-18 05:22 49.19102 -2.42614 3128 ft 193 kts 89°
2026-01-18 05:22 49.19134 -2.40573 2856 ft 190 kts 86°
2026-01-18 05:23 49.19385 -2.36710 2379 ft 180 kts 83°
2026-01-18 05:23 49.19689 -2.32944 1891 ft 169 kts 83°
2026-01-18 05:24 49.20073 -2.28278 1334 ft 136 kts 82°
2026-01-18 05:25 49.20308 -2.25425 949 ft 132 kts 82°
2026-01-18 05:25 49.20539 -2.22647 581 ft 134 kts 82°
2026-01-18 05:26 49.20774 -2.19858 285 ft 123 kts 82°
2026-01-18 05:26 49.20871 -2.18681 282 ft 33 kts 83°
2026-01-18 05:27 49.20839 -2.18375 282 ft 12 kts 165°
2026-01-18 05:27 49.20765 -2.18417 283 ft 10 kts 218°
2026-01-18 05:28 49.20717 -2.18712 283 ft 13 kts 263°
2026-01-18 05:28 49.20694 -2.18983 283 ft 13 kts 262°
2026-01-18 05:29 49.20687 -2.19241 283 ft 12 kts 284°
2026-01-18 05:29 49.20699 -2.19532 283 ft 13 kts 260°
2026-01-18 05:30 49.20630 -2.19686 286 ft 7 kts 228°
2026-01-18 05:30 49.20567 -2.19755 283 ft 3 kts 174°
2026-01-18 05:31 49.20554 -2.19753 283 ft 0 kts 173°